Location: Alafon
(8.4500°N, 4.2333°E)
Time: 17:05:07
(UTC+00:00)

N. Korean satellite - Pass Details

Date: 23 June 2021
Orbit: 451 x 498 km, 97.2° (Epoch: 01 August)

Event Time Altitude Azimuth Distance (km) Brightness Sun altitude
Rises 04:49:51 0° 7° (N) 2,565 10.7 -9.2°
Reaches altitude 10° 04:51:55 10° 4° (N) 1,688 9.7 -8.7°
Maximum altitude 04:55:32 68° 281° (W) 537 6.6 -7.9°
Drops below altitude 10° 04:59:10 10° 198° (SSW) 1,695 8.9 -7.1°
Sets 05:01:15 0° 195° (SSW) 2,577 9.9 -6.6°
